RADIO ROSTO (RS-15)

Last updated on Thu Jan 15 2026 00:03:09 GMT+0000 (Coordinated Universal Time)

1 23439U 94085A 26014.59518477 .00000005 00000+0 13440-2 0 9994 2 23439 64.8127 191.6150 0150881 32.3245 328.6817 11.27583788278581

Satellite not in orbit

RADIO ROSTO (RS-15)